HAYCI LDSP-LIPB

Flight info

Callsign HAYCI
Flight time 1h 50m
Altitude 18000
Route ZDA DCT NAKIT DCT ROTAR L615 VIC
Aircraft C414/L-SBDFGRY/S

Departure

Time 2026-04-21 13:33
Airport Split Saint Jerome Airport (LDSP)

Arrival

Time 2026-04-21 15:23
Airport Bolzano Airport (LIPB)
Time Latitude Longitude Altitude Speed Heading
2026-04-21 13:14 43.53587 16.29573 63 ft 0 kts 115°
2026-04-21 13:30 43.53587 16.29578 63 ft 3 kts 95°
2026-04-21 13:30 43.53626 16.29585 61 ft 8 kts 351°
2026-04-21 13:30 43.53683 16.29657 63 ft 17 kts 53°
2026-04-21 13:31 43.53769 16.29813 63 ft 24 kts 52°
2026-04-21 13:31 43.53883 16.30017 63 ft 24 kts 52°
2026-04-21 13:31 43.54002 16.30096 56 ft 18 kts 15°
2026-04-21 13:31 43.54062 16.30099 53 ft 3 kts 231°
2026-04-21 13:32 43.53971 16.29934 65 ft 50 kts 233°
2026-04-21 13:32 43.53660 16.29371 71 ft 94 kts 232°
2026-04-21 13:32 43.53222 16.28586 236 ft 105 kts 232°
2026-04-21 13:32 43.52741 16.27871 619 ft 100 kts 226°
2026-04-21 13:33 43.52284 16.27120 907 ft 106 kts 231°
2026-04-21 13:33 43.51799 16.26325 1204 ft 110 kts 232°
2026-04-21 13:33 43.51306 16.25506 1559 ft 111 kts 231°
2026-04-21 13:33 43.50815 16.24690 1932 ft 110 kts 231°
2026-04-21 13:34 43.50334 16.23884 2294 ft 110 kts 230°
2026-04-21 13:34 43.49842 16.23058 2632 ft 113 kts 231°
2026-04-21 13:34 43.49336 16.22208 2966 ft 116 kts 231°
2026-04-21 13:34 43.48820 16.21340 3312 ft 118 kts 231°
2026-04-21 13:35 43.48468 16.20340 3642 ft 119 kts 270°
2026-04-21 13:35 43.48625 16.19615 3865 ft 119 kts 307°
2026-04-21 13:35 43.49246 16.18869 4226 ft 118 kts 321°
2026-04-21 13:35 43.49863 16.18124 4605 ft 118 kts 321°
2026-04-21 13:36 43.50466 16.17361 4964 ft 118 kts 318°
2026-04-21 13:36 43.51065 16.16577 5301 ft 118 kts 318°
2026-04-21 13:36 43.51659 16.15790 5657 ft 118 kts 318°
2026-04-21 13:36 43.52246 16.14999 6028 ft 118 kts 318°
2026-04-21 13:37 43.52850 16.14186 6326 ft 125 kts 318°
2026-04-21 13:37 43.53480 16.13335 6631 ft 128 kts 317°
2026-04-21 13:37 43.54125 16.12465 6926 ft 131 kts 317°
2026-04-21 13:37 43.54776 16.11584 7263 ft 131 kts 316°
2026-04-21 13:38 43.55431 16.10696 7611 ft 132 kts 316°
2026-04-21 13:38 43.56088 16.09805 7964 ft 133 kts 316°
2026-04-21 13:38 43.56746 16.08916 8330 ft 133 kts 316°
2026-04-21 13:38 43.57402 16.08025 8701 ft 132 kts 316°
2026-04-21 13:39 43.58058 16.07136 9055 ft 132 kts 316°
2026-04-21 13:39 43.58703 16.06260 9424 ft 132 kts 316°
2026-04-21 13:39 43.59364 16.05363 9800 ft 131 kts 315°
2026-04-21 13:39 43.60004 16.04494 10120 ft 131 kts 315°
2026-04-21 13:40 43.60650 16.03615 10453 ft 131 kts 315°
2026-04-21 13:40 43.61298 16.02737 10801 ft 130 kts 314°
2026-04-21 13:40 43.62163 16.01562 11283 ft 130 kts 314°
2026-04-21 13:40 43.62588 16.00983 11519 ft 130 kts 313°
2026-04-21 13:41 43.63232 16.00107 11876 ft 129 kts 313°
2026-04-21 13:41 43.63872 15.99237 12231 ft 129 kts 312°
2026-04-21 13:41 43.64509 15.98372 12603 ft 128 kts 311°
2026-04-21 13:41 43.65141 15.97511 12974 ft 127 kts 311°
2026-04-21 13:42 43.65772 15.96652 13347 ft 127 kts 310°
2026-04-21 13:42 43.66400 15.95797 13715 ft 126 kts 310°
2026-04-21 13:42 43.67018 15.94955 14037 ft 126 kts 310°
2026-04-21 13:42 43.67640 15.94107 14361 ft 125 kts 309°
2026-04-21 13:43 43.68260 15.93262 14688 ft 125 kts 309°
2026-04-21 13:43 43.68876 15.92423 15031 ft 124 kts 309°
2026-04-21 13:43 43.69490 15.91586 15373 ft 123 kts 309°
2026-04-21 13:43 43.70098 15.90756 15716 ft 123 kts 309°
2026-04-21 13:44 43.70703 15.89930 16053 ft 122 kts 308°
2026-04-21 13:44 43.71305 15.89109 16391 ft 121 kts 308°
2026-04-21 13:44 43.71903 15.88293 16736 ft 120 kts 308°
2026-04-21 13:44 43.72494 15.87485 17080 ft 119 kts 308°
2026-04-21 13:45 43.73081 15.86683 17427 ft 118 kts 307°
2026-04-21 13:45 43.73662 15.85888 17770 ft 117 kts 307°
2026-04-21 13:45 43.74244 15.85091 17993 ft 123 kts 307°
2026-04-21 13:45 43.74897 15.84193 18009 ft 141 kts 308°
2026-04-21 13:46 43.75630 15.83191 18011 ft 155 kts 309°
2026-04-21 13:46 43.76415 15.82122 18009 ft 165 kts 309°
2026-04-21 13:46 43.77248 15.80983 18006 ft 172 kts 309°
2026-04-21 13:46 43.78111 15.79804 18003 ft 176 kts 309°
2026-04-21 13:47 43.78990 15.78602 18003 ft 179 kts 309°
2026-04-21 13:47 43.79881 15.77380 18009 ft 181 kts 310°
2026-04-21 13:47 43.80780 15.76149 18008 ft 182 kts 310°
2026-04-21 13:47 43.81683 15.74910 18006 ft 183 kts 310°
2026-04-21 13:48 43.82589 15.73668 18008 ft 183 kts 310°
2026-04-21 13:48 43.83494 15.72426 18005 ft 184 kts 309°
2026-04-21 13:48 43.84400 15.71178 18008 ft 184 kts 309°
2026-04-21 13:48 43.85311 15.69925 18006 ft 185 kts 309°
2026-04-21 13:49 43.86222 15.68675 18003 ft 184 kts 310°
2026-04-21 13:49 43.87125 15.67434 18001 ft 181 kts 309°
2026-04-21 13:49 43.88016 15.66207 18000 ft 180 kts 309°
2026-04-21 13:49 43.88056 15.66153 18004 ft 180 kts 309°
2026-04-21 13:50 43.88814 15.65107 17999 ft 180 kts 309°
2026-04-21 13:50 43.89701 15.63887 18007 ft 180 kts 309°
2026-04-21 13:50 43.90588 15.62664 18007 ft 179 kts 309°
2026-04-21 13:50 43.91473 15.61443 18006 ft 179 kts 309°
2026-04-21 13:51 43.92347 15.60237 18012 ft 180 kts 309°
2026-04-21 13:51 43.93238 15.59008 18005 ft 180 kts 309°
2026-04-21 13:51 43.94127 15.57781 18004 ft 180 kts 309°
2026-04-21 13:51 43.95015 15.56554 18002 ft 180 kts 309°
2026-04-21 13:52 43.95904 15.55325 18003 ft 180 kts 309°
2026-04-21 13:52 43.96791 15.54100 18002 ft 180 kts 309°
2026-04-21 13:52 43.97682 15.52867 18002 ft 181 kts 309°
2026-04-21 13:52 43.98578 15.51627 18005 ft 182 kts 309°
2026-04-21 13:53 43.99478 15.50382 18006 ft 183 kts 309°
2026-04-21 13:53 44.00379 15.49133 18006 ft 183 kts 309°
2026-04-21 13:53 44.01282 15.47883 18005 ft 183 kts 309°
2026-04-21 13:53 44.02186 15.46629 18003 ft 184 kts 309°
2026-04-21 13:54 44.03090 15.45375 18003 ft 183 kts 309°
2026-04-21 13:54 44.03993 15.44122 18003 ft 183 kts 309°
2026-04-21 13:54 44.04886 15.42884 18002 ft 183 kts 309°
2026-04-21 13:54 44.05790 15.41628 18002 ft 183 kts 309°
2026-04-21 13:55 44.06693 15.40374 18002 ft 183 kts 309°
2026-04-21 13:55 44.07595 15.39119 18003 ft 183 kts 309°
2026-04-21 13:55 44.08498 15.37863 18002 ft 184 kts 309°
2026-04-21 13:55 44.09400 15.36607 18003 ft 183 kts 309°
2026-04-21 13:56 44.10205 15.35250 17996 ft 181 kts 305°
2026-04-21 13:56 44.11008 15.33901 17998 ft 181 kts 306°
2026-04-21 13:56 44.11812 15.32553 17998 ft 181 kts 306°
2026-04-21 13:56 44.12610 15.31200 17998 ft 181 kts 305°
2026-04-21 13:57 44.13406 15.29846 17999 ft 181 kts 305°
2026-04-21 13:57 44.14202 15.28492 17998 ft 180 kts 305°
2026-04-21 13:57 44.14997 15.27140 17998 ft 180 kts 305°
2026-04-21 13:57 44.15790 15.25789 17998 ft 180 kts 305°
2026-04-21 13:58 44.16583 15.24439 18019 ft 180 kts 303°
2026-04-21 13:58 44.17372 15.23093 17999 ft 182 kts 304°
2026-04-21 13:58 44.18175 15.21723 18000 ft 182 kts 304°
2026-04-21 13:58 44.18980 15.20352 18002 ft 183 kts 304°
2026-04-21 13:59 44.19786 15.18977 18003 ft 183 kts 304°
2026-04-21 13:59 44.20592 15.17601 18006 ft 183 kts 304°
2026-04-21 13:59 44.21403 15.16217 18008 ft 184 kts 304°
2026-04-21 13:59 44.22212 15.14833 18009 ft 184 kts 304°
2026-04-21 14:00 44.23022 15.13448 18009 ft 184 kts 304°
2026-04-21 14:00 44.23830 15.12066 18010 ft 184 kts 304°
2026-04-21 14:00 44.24627 15.10703 18011 ft 184 kts 304°
2026-04-21 14:00 44.25433 15.09322 18013 ft 184 kts 304°
2026-04-21 14:01 44.26243 15.07936 18016 ft 184 kts 303°
2026-04-21 14:01 44.27050 15.06552 18018 ft 184 kts 304°
2026-04-21 14:01 44.27855 15.05172 18015 ft 183 kts 304°
2026-04-21 14:01 44.28656 15.03798 18018 ft 182 kts 304°
2026-04-21 14:02 44.29454 15.02429 18019 ft 181 kts 304°
2026-04-21 14:02 44.30250 15.01062 18025 ft 181 kts 304°
2026-04-21 14:02 44.31044 14.99698 18025 ft 181 kts 304°
2026-04-21 14:03 44.32630 14.96971 18021 ft 181 kts 304°
2026-04-21 14:03 44.33414 14.95624 18021 ft 181 kts 304°
2026-04-21 14:03 44.34205 14.94261 18021 ft 181 kts 304°
2026-04-21 14:03 44.34998 14.92895 18021 ft 181 kts 304°
2026-04-21 14:04 44.35791 14.91530 18023 ft 180 kts 304°
2026-04-21 14:04 44.36580 14.90169 18023 ft 180 kts 304°
2026-04-21 14:04 44.37374 14.88800 18023 ft 180 kts 304°
2026-04-21 14:04 44.38154 14.87455 18023 ft 180 kts 304°
2026-04-21 14:05 44.38953 14.86076 18021 ft 180 kts 304°
2026-04-21 14:05 44.39742 14.84713 18021 ft 180 kts 304°
2026-04-21 14:05 44.40531 14.83350 18021 ft 180 kts 304°
2026-04-21 14:05 44.41307 14.82008 18023 ft 180 kts 304°
2026-04-21 14:06 44.42097 14.80643 18029 ft 180 kts 303°
2026-04-21 14:06 44.42886 14.79277 18029 ft 180 kts 303°
2026-04-21 14:06 44.43674 14.77913 18029 ft 180 kts 303°
2026-04-21 14:06 44.44463 14.76547 18029 ft 180 kts 303°
2026-04-21 14:07 44.45251 14.75182 18030 ft 180 kts 303°
2026-04-21 14:07 44.46038 14.73818 18030 ft 180 kts 303°
2026-04-21 14:07 44.46824 14.72453 18030 ft 180 kts 303°
2026-04-21 14:07 44.47612 14.71087 18033 ft 180 kts 303°
2026-04-21 14:08 44.48399 14.69721 18036 ft 180 kts 303°
2026-04-21 14:08 44.49187 14.68353 18036 ft 180 kts 303°
2026-04-21 14:08 44.49975 14.66983 18036 ft 180 kts 303°
2026-04-21 14:08 44.50762 14.65616 18036 ft 180 kts 303°
2026-04-21 14:09 44.51548 14.64248 18036 ft 180 kts 303°
2026-04-21 14:09 44.52335 14.62879 18036 ft 180 kts 303°
2026-04-21 14:09 44.53121 14.61510 18035 ft 180 kts 303°
2026-04-21 14:09 44.53907 14.60141 18035 ft 180 kts 303°
2026-04-21 14:10 44.54693 14.58771 18035 ft 180 kts 303°
2026-04-21 14:10 44.55481 14.57398 18033 ft 181 kts 303°
2026-04-21 14:10 44.56259 14.56041 18034 ft 181 kts 303°
2026-04-21 14:10 44.57045 14.54670 18034 ft 180 kts 303°
2026-04-21 14:11 44.57832 14.53295 18032 ft 180 kts 303°
2026-04-21 14:11 44.58619 14.51920 18032 ft 180 kts 303°
2026-04-21 14:11 44.59404 14.50549 18032 ft 180 kts 303°
2026-04-21 14:11 44.60190 14.49175 18032 ft 180 kts 303°
2026-04-21 14:12 44.60975 14.47802 18035 ft 180 kts 303°
2026-04-21 14:12 44.61760 14.46429 18033 ft 180 kts 303°
2026-04-21 14:12 44.62542 14.45060 18033 ft 179 kts 303°
2026-04-21 14:12 44.63321 14.43694 18033 ft 179 kts 303°
2026-04-21 14:13 44.64100 14.42329 18036 ft 179 kts 303°
2026-04-21 14:13 44.64876 14.40969 18035 ft 179 kts 303°
2026-04-21 14:13 44.65652 14.39605 18035 ft 178 kts 303°
2026-04-21 14:13 44.66427 14.38246 18035 ft 178 kts 303°
2026-04-21 14:14 44.67200 14.36893 18031 ft 175 kts 303°
2026-04-21 14:14 44.67960 14.35573 18041 ft 174 kts 303°
2026-04-21 14:14 44.68721 14.34232 18031 ft 177 kts 302°
2026-04-21 14:14 44.69479 14.32864 18027 ft 178 kts 302°
2026-04-21 14:15 44.70244 14.31526 18025 ft 178 kts 303°
2026-04-21 14:15 44.71017 14.30172 18024 ft 177 kts 303°
2026-04-21 14:15 44.71788 14.28819 18026 ft 177 kts 302°
2026-04-21 14:15 44.72560 14.27460 18024 ft 177 kts 302°
2026-04-21 14:16 44.73332 14.26099 18029 ft 177 kts 302°
2026-04-21 14:16 44.74102 14.24741 18028 ft 177 kts 302°
2026-04-21 14:16 44.74871 14.23385 18029 ft 177 kts 302°
2026-04-21 14:16 44.75640 14.22027 18031 ft 177 kts 302°
2026-04-21 14:17 44.76411 14.20666 18029 ft 177 kts 302°
2026-04-21 14:17 44.77179 14.19309 18028 ft 177 kts 302°
2026-04-21 14:17 44.77937 14.17968 18029 ft 177 kts 302°
2026-04-21 14:17 44.78707 14.16608 18028 ft 177 kts 303°
2026-04-21 14:18 44.79475 14.15249 18027 ft 177 kts 303°
2026-04-21 14:18 44.80243 14.13888 18028 ft 177 kts 303°
2026-04-21 14:18 44.81012 14.12527 18027 ft 177 kts 303°
2026-04-21 14:18 44.81780 14.11167 18028 ft 177 kts 303°
2026-04-21 14:19 44.82287 14.10266 18030 ft 177 kts 303°
2026-04-21 14:19 44.83305 14.08462 18031 ft 177 kts 303°
2026-04-21 14:19 44.84074 14.07099 18031 ft 177 kts 303°
2026-04-21 14:19 44.84839 14.05739 18017 ft 177 kts 303°
2026-04-21 14:20 44.85359 14.04817 18017 ft 177 kts 303°
2026-04-21 14:20 44.86125 14.03455 18017 ft 177 kts 303°
2026-04-21 14:20 44.86891 14.02094 18017 ft 177 kts 303°
2026-04-21 14:20 44.87658 14.00730 18017 ft 177 kts 303°
2026-04-21 14:21 44.88423 13.99368 18016 ft 177 kts 303°
2026-04-21 14:21 44.89190 13.98004 18018 ft 177 kts 303°
2026-04-21 14:21 44.89944 13.96659 18016 ft 177 kts 303°
2026-04-21 14:21 44.90712 13.95293 18018 ft 177 kts 303°
2026-04-21 14:22 44.91480 13.93925 18022 ft 178 kts 303°
2026-04-21 14:22 44.92247 13.92555 18028 ft 178 kts 303°
2026-04-21 14:22 44.93015 13.91186 18030 ft 178 kts 303°
2026-04-21 14:22 44.93781 13.89818 18030 ft 177 kts 303°
2026-04-21 14:23 44.94546 13.88451 18030 ft 177 kts 303°
2026-04-21 14:23 44.95311 13.87085 18030 ft 177 kts 303°
2026-04-21 14:23 44.96077 13.85715 18015 ft 178 kts 303°
2026-04-21 14:23 44.96845 13.84342 18020 ft 178 kts 303°
2026-04-21 14:24 44.97604 13.82983 18021 ft 179 kts 303°
2026-04-21 14:24 44.98376 13.81601 18022 ft 179 kts 303°
2026-04-21 14:24 44.99146 13.80222 18020 ft 179 kts 303°
2026-04-21 14:24 44.99918 13.78839 18019 ft 179 kts 303°
2026-04-21 14:25 45.00688 13.77459 18037 ft 179 kts 303°
2026-04-21 14:25 45.01458 13.76076 18038 ft 179 kts 303°
2026-04-21 14:25 45.02228 13.74695 18031 ft 179 kts 303°
2026-04-21 14:25 45.02997 13.73314 18032 ft 179 kts 303°
2026-04-21 14:26 45.03766 13.71933 18023 ft 179 kts 303°
2026-04-21 14:26 45.04533 13.70554 18032 ft 179 kts 303°
2026-04-21 14:26 45.05305 13.69166 18025 ft 179 kts 303°
2026-04-21 14:26 45.06076 13.67780 18032 ft 179 kts 303°
2026-04-21 14:27 45.06845 13.66395 18032 ft 179 kts 303°
2026-04-21 14:27 45.07615 13.65009 18032 ft 179 kts 303°
2026-04-21 14:27 45.08386 13.63620 18029 ft 179 kts 303°
2026-04-21 14:27 45.09146 13.62249 18032 ft 179 kts 303°
2026-04-21 14:28 45.09915 13.60863 18023 ft 178 kts 303°
2026-04-21 14:28 45.10680 13.59483 18030 ft 178 kts 303°
2026-04-21 14:28 45.11446 13.58100 18030 ft 178 kts 303°
2026-04-21 14:28 45.12208 13.56724 18029 ft 178 kts 303°
2026-04-21 14:29 45.12971 13.55345 18022 ft 178 kts 303°
2026-04-21 14:29 45.13735 13.53964 18023 ft 178 kts 304°
2026-04-21 14:29 45.14498 13.52584 18022 ft 178 kts 304°
2026-04-21 14:29 45.15264 13.51198 18022 ft 178 kts 304°
2026-04-21 14:30 45.16030 13.49810 18020 ft 178 kts 304°
2026-04-21 14:30 45.16793 13.48429 18026 ft 178 kts 304°
2026-04-21 14:30 45.17548 13.47061 18032 ft 179 kts 304°
2026-04-21 14:30 45.18312 13.45677 18038 ft 178 kts 304°
2026-04-21 14:31 45.18921 13.44183 18036 ft 175 kts 286°
2026-04-21 14:31 45.19167 13.42495 18040 ft 175 kts 282°
2026-04-21 14:31 45.19400 13.40797 18041 ft 175 kts 283°
2026-04-21 14:31 45.19647 13.39103 18041 ft 175 kts 283°
2026-04-21 14:32 45.19898 13.37411 18032 ft 175 kts 283°
2026-04-21 14:32 45.20149 13.35719 18039 ft 175 kts 283°
2026-04-21 14:32 45.20399 13.34025 18028 ft 175 kts 283°
2026-04-21 14:32 45.20646 13.32352 18035 ft 175 kts 283°
2026-04-21 14:33 45.20895 13.30657 18035 ft 175 kts 283°
2026-04-21 14:33 45.21145 13.28964 18035 ft 175 kts 283°
2026-04-21 14:33 45.21394 13.27267 18031 ft 175 kts 283°
2026-04-21 14:33 45.21643 13.25574 18035 ft 175 kts 283°
2026-04-21 14:34 45.21892 13.23882 18039 ft 175 kts 283°
2026-04-21 14:34 45.22140 13.22188 18039 ft 175 kts 283°
2026-04-21 14:34 45.22387 13.20497 18025 ft 175 kts 283°
2026-04-21 14:34 45.22635 13.18799 18024 ft 176 kts 283°
2026-04-21 14:35 45.22885 13.17095 18026 ft 177 kts 283°
2026-04-21 14:35 45.23134 13.15385 18026 ft 177 kts 283°
2026-04-21 14:35 45.23383 13.13677 18022 ft 177 kts 283°
2026-04-21 14:35 45.23632 13.11965 18027 ft 177 kts 283°
2026-04-21 14:36 45.23879 13.10269 18034 ft 177 kts 283°
2026-04-21 14:36 45.24129 13.08550 18031 ft 177 kts 283°
2026-04-21 14:36 45.24378 13.06834 18034 ft 177 kts 283°
2026-04-21 14:36 45.24627 13.05114 18037 ft 177 kts 283°
2026-04-21 14:37 45.24876 13.03398 18034 ft 177 kts 283°
2026-04-21 14:37 45.25123 13.01685 18028 ft 177 kts 283°
2026-04-21 14:37 45.25371 12.99971 18028 ft 177 kts 283°
2026-04-21 14:37 45.25619 12.98254 18034 ft 177 kts 283°
2026-04-21 14:38 45.25863 12.96559 18031 ft 177 kts 283°
2026-04-21 14:38 45.26110 12.94841 18031 ft 177 kts 283°
2026-04-21 14:38 45.26357 12.93125 18031 ft 178 kts 283°
2026-04-21 14:38 45.26604 12.91404 18022 ft 178 kts 283°
2026-04-21 14:39 45.26851 12.89683 18030 ft 178 kts 283°
2026-04-21 14:39 45.27098 12.87962 18035 ft 178 kts 283°
2026-04-21 14:39 45.27344 12.86242 18035 ft 178 kts 283°
2026-04-21 14:39 45.27590 12.84524 18035 ft 177 kts 283°
2026-04-21 14:40 45.27835 12.82808 18024 ft 178 kts 283°
2026-04-21 14:40 45.28080 12.81089 18024 ft 178 kts 283°
2026-04-21 14:40 45.28326 12.79363 18025 ft 178 kts 283°
2026-04-21 14:40 45.28632 12.77687 18025 ft 178 kts 285°
2026-04-21 14:41 45.28912 12.75977 18026 ft 178 kts 284°
2026-04-21 14:41 45.29193 12.74265 18033 ft 178 kts 284°
2026-04-21 14:41 45.29484 12.72551 18027 ft 178 kts 284°
2026-04-21 14:41 45.29778 12.70842 18035 ft 178 kts 284°
2026-04-21 14:42 45.30073 12.69124 18033 ft 178 kts 284°
2026-04-21 14:42 45.30367 12.67411 18029 ft 179 kts 284°
2026-04-21 14:42 45.30660 12.65697 18035 ft 179 kts 284°
2026-04-21 14:42 45.30953 12.63983 18031 ft 179 kts 284°
2026-04-21 14:43 45.31247 12.62267 18033 ft 179 kts 284°
2026-04-21 14:43 45.31536 12.60570 18037 ft 179 kts 284°
2026-04-21 14:43 45.31829 12.58854 18038 ft 179 kts 284°
2026-04-21 14:43 45.32121 12.57138 18032 ft 179 kts 284°
2026-04-21 14:44 45.32414 12.55418 18037 ft 179 kts 284°
2026-04-21 14:44 45.32705 12.53702 18038 ft 179 kts 284°
2026-04-21 14:44 45.32997 12.51986 18034 ft 179 kts 284°
2026-04-21 14:44 45.33292 12.50271 18036 ft 178 kts 286°
2026-04-21 14:45 45.33807 12.48672 18041 ft 178 kts 297°
2026-04-21 14:45 45.34407 12.47125 18047 ft 178 kts 297°
2026-04-21 14:45 45.34995 12.45567 18038 ft 179 kts 297°
2026-04-21 14:45 45.35581 12.44001 18037 ft 179 kts 296°
2026-04-21 14:46 45.36158 12.42454 18038 ft 179 kts 296°
2026-04-21 14:46 45.36744 12.40884 18041 ft 180 kts 296°
2026-04-21 14:46 45.37329 12.39317 18041 ft 180 kts 296°
2026-04-21 14:46 45.37915 12.37746 18037 ft 180 kts 296°
2026-04-21 14:47 45.38502 12.36172 18044 ft 180 kts 296°
2026-04-21 14:47 45.39089 12.34599 18037 ft 180 kts 296°
2026-04-21 14:47 45.39676 12.33023 18045 ft 180 kts 296°
2026-04-21 14:47 45.40261 12.31448 18042 ft 180 kts 296°
2026-04-21 14:48 45.40847 12.29875 18041 ft 180 kts 296°
2026-04-21 14:48 45.41433 12.28299 18044 ft 180 kts 296°
2026-04-21 14:48 45.42018 12.26723 18044 ft 180 kts 296°
2026-04-21 14:48 45.42603 12.25150 18046 ft 180 kts 296°
2026-04-21 14:49 45.43187 12.23575 18046 ft 180 kts 296°
2026-04-21 14:49 45.43773 12.21997 18041 ft 180 kts 296°
2026-04-21 14:49 45.44356 12.20423 18045 ft 180 kts 296°
2026-04-21 14:49 45.44933 12.18867 18044 ft 180 kts 296°
2026-04-21 14:50 45.45327 12.17803 18026 ft 180 kts 296°
2026-04-21 14:50 45.46100 12.15713 18035 ft 180 kts 296°
2026-04-21 14:50 45.46684 12.14133 18034 ft 180 kts 296°
2026-04-21 14:50 45.47269 12.12552 18019 ft 180 kts 296°
2026-04-21 14:51 45.47849 12.10981 18036 ft 179 kts 296°
2026-04-21 14:51 45.48431 12.09407 18037 ft 180 kts 296°
2026-04-21 14:51 45.49014 12.07827 18037 ft 180 kts 296°
2026-04-21 14:51 45.49590 12.06265 18038 ft 180 kts 296°
2026-04-21 14:52 45.50171 12.04689 18037 ft 180 kts 296°
2026-04-21 14:52 45.50754 12.03105 18038 ft 180 kts 296°
2026-04-21 14:52 45.51335 12.01528 18039 ft 180 kts 296°
2026-04-21 14:52 45.51916 11.99949 18040 ft 180 kts 296°
2026-04-21 14:53 45.52498 11.98365 18043 ft 181 kts 296°
2026-04-21 14:53 45.53084 11.96773 18043 ft 182 kts 296°
2026-04-21 14:53 45.53670 11.95178 18044 ft 182 kts 296°
2026-04-21 14:53 45.54257 11.93578 18044 ft 182 kts 296°
2026-04-21 14:54 45.54846 11.91973 18045 ft 183 kts 297°
2026-04-21 14:54 45.55434 11.90368 18045 ft 182 kts 297°
2026-04-21 14:54 45.56019 11.88771 18047 ft 181 kts 297°
2026-04-21 14:54 45.56596 11.87196 18039 ft 181 kts 297°
2026-04-21 14:55 45.57179 11.85604 18039 ft 181 kts 297°
2026-04-21 14:55 45.57761 11.84012 18033 ft 181 kts 297°
2026-04-21 14:55 45.58342 11.82423 18035 ft 181 kts 297°
2026-04-21 14:55 45.58922 11.80836 18036 ft 180 kts 297°
2026-04-21 14:56 45.59503 11.79247 18031 ft 180 kts 297°
2026-04-21 14:56 45.60083 11.77656 18034 ft 181 kts 297°
2026-04-21 14:56 45.60666 11.76059 18033 ft 181 kts 297°
2026-04-21 14:56 45.61246 11.74465 18032 ft 181 kts 297°
2026-04-21 14:57 45.61827 11.72872 18024 ft 181 kts 297°
2026-04-21 14:57 45.62407 11.71280 18026 ft 181 kts 297°
2026-04-21 14:57 45.62986 11.69687 18027 ft 181 kts 297°
2026-04-21 14:57 45.63618 11.68139 18025 ft 181 kts 308°
2026-04-21 14:58 45.64677 11.67135 18035 ft 189 kts 334°
2026-04-21 14:58 45.65963 11.66641 18031 ft 192 kts 339°
2026-04-21 14:58 45.67252 11.66157 18037 ft 188 kts 337°
2026-04-21 14:58 45.68444 11.65671 17997 ft 173 kts 335°
2026-04-21 14:59 45.69569 11.65194 17932 ft 165 kts 335°
2026-04-21 14:59 45.70651 11.64735 17841 ft 160 kts 335°
2026-04-21 14:59 45.71713 11.64286 17757 ft 158 kts 335°
2026-04-21 14:59 45.72764 11.63842 17670 ft 156 kts 335°
2026-04-21 15:00 45.73802 11.63404 17576 ft 155 kts 335°
2026-04-21 15:00 45.74837 11.62968 17482 ft 155 kts 335°
2026-04-21 15:00 45.75869 11.62532 17382 ft 154 kts 335°
2026-04-21 15:00 45.76898 11.62098 17271 ft 154 kts 335°
2026-04-21 15:01 45.77928 11.61664 17176 ft 154 kts 335°
2026-04-21 15:01 45.78954 11.61233 17096 ft 153 kts 335°
2026-04-21 15:01 45.79973 11.60800 16995 ft 153 kts 335°
2026-04-21 15:01 45.80994 11.60370 16916 ft 152 kts 335°
2026-04-21 15:02 45.81997 11.59947 16814 ft 152 kts 336°
2026-04-21 15:02 45.83009 11.59520 16712 ft 151 kts 336°
2026-04-21 15:02 45.84019 11.59091 16638 ft 151 kts 336°
2026-04-21 15:02 45.85027 11.58666 16538 ft 151 kts 336°
2026-04-21 15:03 45.86034 11.58240 16446 ft 151 kts 336°
2026-04-21 15:03 45.87044 11.57813 16362 ft 152 kts 336°
2026-04-21 15:03 45.88055 11.57385 16283 ft 152 kts 336°
2026-04-21 15:03 45.89070 11.56955 16209 ft 152 kts 336°
2026-04-21 15:04 45.90083 11.56525 16148 ft 152 kts 336°
2026-04-21 15:04 45.91098 11.56095 16046 ft 152 kts 336°
2026-04-21 15:04 45.92110 11.55668 15989 ft 151 kts 336°
2026-04-21 15:04 45.93120 11.55237 15908 ft 151 kts 336°
2026-04-21 15:05 45.94131 11.54809 15818 ft 151 kts 337°
2026-04-21 15:05 45.95812 11.54096 15660 ft 152 kts 337°
2026-04-21 15:05 45.96823 11.53667 15573 ft 152 kts 337°
2026-04-21 15:06 45.98161 11.53096 15467 ft 151 kts 337°
2026-04-21 15:06 45.99115 11.52520 15362 ft 147 kts 318°
2026-04-21 15:06 45.99627 11.51286 15263 ft 148 kts 284°
2026-04-21 15:06 45.99706 11.50291 15197 ft 149 kts 280°
2026-04-21 15:07 45.99819 11.48812 15116 ft 149 kts 281°
2026-04-21 15:07 45.99943 11.47334 15057 ft 149 kts 281°
2026-04-21 15:07 46.00068 11.45853 15036 ft 149 kts 281°
2026-04-21 15:07 46.00190 11.44367 15021 ft 150 kts 281°
2026-04-21 15:08 46.00316 11.42855 14910 ft 154 kts 281°
2026-04-21 15:08 46.00446 11.41320 14794 ft 155 kts 281°
2026-04-21 15:08 46.00575 11.39772 14676 ft 156 kts 281°
2026-04-21 15:08 46.00705 11.38237 14542 ft 157 kts 281°
2026-04-21 15:09 46.00835 11.36672 14419 ft 158 kts 281°
2026-04-21 15:09 46.00966 11.35102 14329 ft 158 kts 281°
2026-04-21 15:09 46.01098 11.33506 14210 ft 159 kts 281°
2026-04-21 15:09 46.01229 11.31930 14073 ft 159 kts 281°
2026-04-21 15:10 46.01359 11.30364 13945 ft 160 kts 281°
2026-04-21 15:10 46.01490 11.28780 13825 ft 160 kts 281°
2026-04-21 15:10 46.01622 11.27189 13684 ft 160 kts 281°
2026-04-21 15:10 46.01751 11.25602 13549 ft 160 kts 281°
2026-04-21 15:11 46.01884 11.24013 13415 ft 160 kts 281°
2026-04-21 15:11 46.02014 11.22429 13266 ft 160 kts 281°
2026-04-21 15:11 46.02145 11.20839 13115 ft 160 kts 281°
2026-04-21 15:11 46.02275 11.19247 12966 ft 161 kts 281°
2026-04-21 15:12 46.02408 11.17644 12828 ft 161 kts 281°
2026-04-21 15:12 46.02537 11.16044 12734 ft 160 kts 281°
2026-04-21 15:12 46.02732 11.14475 12609 ft 158 kts 294°
2026-04-21 15:12 46.03439 11.13312 12481 ft 158 kts 329°
2026-04-21 15:13 46.04518 11.13013 12366 ft 164 kts
2026-04-21 15:13 46.05624 11.13470 12257 ft 166 kts 13°
2026-04-21 15:13 46.06709 11.13953 12149 ft 165 kts 12°
2026-04-21 15:13 46.07806 11.14450 12039 ft 165 kts 13°
2026-04-21 15:14 46.08881 11.14948 12027 ft 159 kts 12°
2026-04-21 15:14 46.09920 11.15427 12022 ft 154 kts 12°
2026-04-21 15:14 46.10933 11.15879 12013 ft 149 kts
2026-04-21 15:14 46.11933 11.16236 12013 ft 147 kts 11°
2026-04-21 15:15 46.12953 11.16660 11764 ft 160 kts 11°
2026-04-21 15:15 46.14076 11.17109 11311 ft 177 kts 11°
2026-04-21 15:15 46.15321 11.17600 10739 ft 192 kts 12°
2026-04-21 15:15 46.16633 11.18119 10024 ft 201 kts 12°
2026-04-21 15:16 46.18021 11.18662 9080 ft 210 kts 12°
2026-04-21 15:16 46.19456 11.19224 8149 ft 216 kts 14°
2026-04-21 15:16 46.20902 11.19807 7574 ft 210 kts 14°
2026-04-21 15:16 46.22253 11.20335 7355 ft 194 kts 14°
2026-04-21 15:17 46.23515 11.20829 7107 ft 187 kts 15°
2026-04-21 15:17 46.24706 11.21435 7041 ft 175 kts 22°
2026-04-21 15:17 46.25807 11.22046 6867 ft 176 kts 20°
2026-04-21 15:17 46.26987 11.22685 6521 ft 185 kts 21°
2026-04-21 15:18 46.28204 11.23359 6141 ft 189 kts 21°
2026-04-21 15:18 46.29451 11.24053 5744 ft 194 kts 22°
2026-04-21 15:18 46.30718 11.24759 5349 ft 196 kts 22°
2026-04-21 15:18 46.31964 11.25452 4875 ft 183 kts 22°
2026-04-21 15:19 46.33071 11.26066 4525 ft 163 kts 22°
2026-04-21 15:19 46.34103 11.26641 4195 ft 154 kts 23°
2026-04-21 15:19 46.35046 11.27166 3899 ft 137 kts 23°
2026-04-21 15:19 46.35904 11.27642 3632 ft 129 kts 23°
2026-04-21 15:20 46.36716 11.28095 3374 ft 124 kts 24°
2026-04-21 15:20 46.37522 11.28548 3130 ft 122 kts 24°
2026-04-21 15:20 46.38321 11.28996 2886 ft 126 kts 25°
2026-04-21 15:20 46.39149 11.29434 2632 ft 127 kts 18°
2026-04-21 15:21 46.39999 11.29864 2316 ft 129 kts 28°
2026-04-21 15:21 46.40791 11.30455 2067 ft 125 kts 32°
2026-04-21 15:21 46.41540 11.31062 1852 ft 119 kts 23°
2026-04-21 15:21 46.42229 11.31649 1635 ft 113 kts 19°
2026-04-21 15:22 46.42991 11.31906 1437 ft 113 kts
2026-04-21 15:22 46.43785 11.32081 1227 ft 119 kts 10°
2026-04-21 15:22 46.44624 11.32275 1013 ft 123 kts 12°
2026-04-21 15:22 46.45442 11.32486 789 ft 108 kts 13°
2026-04-21 15:23 46.46093 11.32656 784 ft 77 kts
2026-04-21 15:23 46.46278 11.32708 783 ft 2 kts 46°
2026-04-21 15:23 46.46269 11.32727 783 ft 5 kts 194°
2026-04-21 15:23 46.46243 11.32765 783 ft 10 kts 104°
2026-04-21 15:24 46.46236 11.32810 782 ft 3 kts 98°
2026-04-21 15:24 46.46281 11.32848 782 ft 11 kts 98°
2026-04-21 15:24 46.46270 11.32918 782 ft 0 kts 100°